Regional Weather Roundup
Issued by NWS

Home | Current Version | Previous Version | Graphics & Text | Print | Product List | Glossary On
Versions: 1 2 3 4 5 6 7 8 9 10 11 12 13 14 15 16 17 18 19 20 21 22 23 24 25 26 27 28 29 30 31 32 33 34 35 36 37 38 39 40 41 42 43 44 45 46 47 48 49 50
000
ASUS43 KDMX 230801
RWRIA

WEATHER ROUNDUP FOR IOWA
NATIONAL WEATHER SERVICE DES MOINES IA
300 AM CDT FRI JUN 23 2017

NOTE: "FAIR" INDICATES FEW OR NO CLOUDS BELOW 12,000 FEET WITH NO
SIGNIFICANT WEATHER AND/OR OBSTRUCTIONS TO VISIBILITY.

* - THESE STATIONS ARE NOT NWS STATIONS...THUS NOT UNDER NWS
QUALITY CONTROL.  THEY ALSO DO NOT REPORT WEATHER SUCH
AS PRECIPITATION OR FOG.

IAZ001>003-012>014-020>022-031>034-043>046-230900-
   NORTHWEST IOWA

CITY           SKY/WX    TMP DP  RH WIND       PRES   REMARKS
CARROLL *      PTCLDY    64  59  82 NW3       29.81F
CHEROKEE *     CLEAR     54  54  99 CALM      29.84S
DENISON *      MOCLDY    63  55  77 CALM      29.84F
LE MARS *      CLEAR     55  52  88 CALM      29.85S
ORANGE CITY *  CLEAR     55  52  88 NW5       29.84F
SHELDON *      CLEAR     52  52 100 NW3       29.82F
SIOUX CITY       N/A    N/A N/A N/A MISG      29.84F
SPENCER        CLEAR     53  51  93 W6        29.82F
STORM LAKE *   CLEAR     59  50  72 NW7       29.83F
$$

IAZ055>058-069>071-079>083-090>094-230900-
   SOUTHWEST IOWA

CITY           SKY/WX    TMP DP  RH WIND       PRES   REMARKS
ATLANTIC *     CLOUDY    66  61  82 N9G16     29.80F
AUDUBON *      CLOUDY    66  61  82 NW6       29.83S
CLARINDA *     CLOUDY    70  64  83 N12G17    29.79F
COUNCIL BLFS * CLOUDY    68  61  77 N13       29.81F
CRESTON *      CLOUDY    68  63  83 N15G22    29.76F
HARLAN  *      MOCLDY    66  61  82 N6        29.84F
LAMONI         CLOUDY    70  68  93 N17G28    29.71F
RED OAK *      CLOUDY    66  64  94 N8        29.79F
SHENANDOAH *   CLOUDY    68  64  88 N13       29.78F
$$

IAZ047>049-059>061-072>074-084-230900-
   CENTRAL IOWA

CITY           SKY/WX    TMP DP  RH WIND       PRES   REMARKS
AMES           CLOUDY    67  65  93 N15       29.77R
ANKENY *       CLOUDY    68  64  88 N13       29.75F
BOONE *        CLOUDY    66  63  88 NW12      29.78R
CHARITON *       N/A     68  68 100 VRB7      29.72S
DES MOINES     MOCLDY    69  66  90 N10       29.74S
GRINNELL*      CLOUDY    70  67  89 N15       29.74S
KNOXVILLE *    CLOUDY    70  68  94 N8        29.72R
MARSHALLTOWN   CLOUDY    69  66  90 N14       29.75R
NEWTON *       CLOUDY    70  66  88 N12       29.74S
PELLA *        HVY RAIN  69  67  95 N7        29.74F
PERRY *        MOCLDY    67  64  89 N8        29.80R
$$

IAZ004>006-015-016-023>025-035-036-230900-
   NORTH CENTRAL IOWA

CITY           SKY/WX    TMP DP  RH WIND       PRES   REMARKS
ALGONA *       CLEAR     57  57 100 CALM      29.81F
CLARION *        N/A     63  63 100 NW10      29.78S
ESTHERVILLE    CLEAR     55  54  96 W7        29.80F
FORT DODGE *   PTCLDY    63  55  77 CALM      29.81S
MASON CITY     CLEAR     61  59  93 NW9       29.79S
FOREST CITY *    N/A     59  54  82 NW7       29.79S
WEBSTER CITY * PTCLDY    63  61  94 NW9       29.76F
IOWA FALLS *   MOCLDY    66  64  91 NW9       29.78R
$$

IAZ007>011-017>019-026>030-037>042-050>054-066-230900-
   NORTHEAST IOWA

CITY           SKY/WX    TMP DP  RH WIND       PRES   REMARKS
CEDAR RAPIDS   CLOUDY    69  69 100 N16       29.68S
CHARLES CITY * PTCLDY    64  64 100 N6        29.76R FOG
CLINTON *      RAIN      73  71  93 N23       29.67F
DECORAH *      CLOUDY    64  64 100 NW6       29.73S
DUBUQUE        CLOUDY    66  65  96 N14       29.70F
MONTICELLO *   CLOUDY    68  66  94 N9G18     29.69R
OELWEIN *      CLOUDY    68  68 100 N5        29.75R
WATERLOO       CLOUDY    67  64  90 N8        29.74R
$$

IAZ064-065-067-068-078-230900-
   EAST CENTRAL IOWA

CITY           SKY/WX    TMP DP  RH WIND       PRES   REMARKS
DAVENPORT      CLOUDY    76  72  87 S7        29.65F THUNDER
IOWA CITY      CLOUDY    73  69  87 NW16G22   29.67F
MT. PLEASANT * CLOUDY    75  73  91 SW9       29.66S
MUSCATINE *    HVY RAIN  75  73  94 SW6       29.63F
QUAD CITIES    CLOUDY    77  71  82 S7        29.64R
$$

IAZ062-063-075>077-085>089-095>099-230900-
   SOUTHEAST IOWA

CITY           SKY/WX    TMP DP  RH WIND       PRES   REMARKS
BURLINGTON     CLEAR     75  73  93 SW10      29.65F
FAIRFIELD *    CLOUDY    73  66  78 NW15G25   29.66S
FORT MADISON * CLEAR     75  73  94 S9        29.66F
KEOKUK *       MOCLDY    75  73  94 SW7       29.66S
OSKALOOSA *    DRIZZLE   69  66  90 N10       29.70F
OTTUMWA        CLOUDY    69  67  93 W7        29.70S
WASHINGTON *   RAIN      75  73  94 NW21      29.68S
$$

ABBREVIATIONS USED IN REMARKS
   TC - TEMPERATURES IN CELSIUS
  WCI - WIND CHILL INDEX
   HX - HEAT INDEX
  VSB - VISIBILITY
$$





USA.gov is the U.S. government's official web portal to all federal, state and local government web resources and services.